Location: Chipilly
(49.9086°N, 2.6497°E)
Time: 07:45:07
(UTC+00:00)

Daily predictions for brighter satellites

Satellite Brightness Start Highest point End
(mag) Time Altitude Azimuth Time Altitude Azimuth Time Altitude Azimuth
CENTAUR R/B 3.6 20:36:58 10° WSW 20:43:04 56° NW 20:50:24 10° NE
CARTOSAT-1 3.8 20:41:08 10° SSE 20:45:20 56° ENE 20:49:35 10° N
SL-14 R/B 4.3 20:42:32 10° SSE 20:46:03 29° E 20:49:34 10° NNE
Terra 2.9 20:42:05 10° SE 20:46:20 33° ENE 20:50:36 10° N
SPOT 1/Viking Rocket 3.6 20:42:12 10° SSE 20:47:21 89° WSW 20:52:32 10° NNW
Cosmos 2360 Rocket 2.2 20:41:46 10° SSW 20:47:23 73° ESE 20:53:02 10° NNE
CZ-2C R/B 3.9 20:42:50 10° NNE 20:47:37 66° ESE 20:52:21 10° S
Cosmos 1674 2.6 20:44:16 10° S 20:47:58 80° E 20:51:42 10° NNE
OBJECT-B 4.2 20:47:50 10° W 20:48:00 10° W 20:48:09 10° W
FALCON 9 DEB 3.9 20:46:37 10° SSW 20:49:15 25° SE 20:51:54 10° E
Cosmos 1953 2.5 20:46:41 10° NNW 20:50:45 79° W 20:54:49 10° S
Meteor 2-11 Rocket 4.5 20:45:15 10° N 20:51:24 77° ENE 20:57:29 10° SSE
Cosmos 2322 Rocket 2.7 20:45:52 10° SW 20:51:34 68° WNW 20:57:16 10° NNE
SL-16 R/B 3.1 20:46:06 10° SW 20:51:41 56° NW 20:57:16 10° NNE
FALCON 9 DEB 3.6 20:49:00 10° SSW 20:51:47 31° SE 20:54:35 10° E
SPOT 5 3.3 20:48:51 10° SE 20:53:46 52° ENE 20:58:26 10° N
USA 245 4.3 20:49:23 10° SSE 20:54:33 88° WSW 21:00:38 10° NNW
Cosmos 1802 Rocket 4.1 20:48:23 10° N 20:54:41 73° E 21:01:02 10° SSE
Cosmos 1975 Rocket 3.2 20:50:50 10° SSW 20:55:13 81° W 20:59:40 10° N
Cosmos 1459 Rocket 4.0 20:50:03 10° N 20:56:09 88° E 21:02:14 10° S
Cosmos 1300 3.3 20:59:07 10° N 21:02:46 43° ENE 21:06:19 11° SSE
Lacrosse 5 4.3 21:02:30 10° W 21:04:02 11° WSW 21:05:35 10° SW
Resurs 01 Rocket 3.2 21:02:33 10° SSW 21:06:31 33° W 21:10:31 10° NNW
Cosmos 1340 2.8 21:08:10 10° S 21:11:51 55° E 21:15:33 10° NNE
USA 267 4.2 21:06:16 10° E 21:12:31 50° N 21:18:47 10° WNW
Cosmos 2322 3.8 21:09:33 10° S 21:15:04 59° ESE 21:20:39 10° NE
Cosmos 2278 Rocket 3.0 21:10:01 10° NNW 21:15:26 43° NE 21:20:50 10° ESE
Cosmos 1844 Rocket 3.6 21:11:04 10° NW 21:16:26 44° WSW 21:21:46 10° S
COSMOS 2428 3.1 21:11:28 10° S 21:16:51 43° ESE 21:22:16 10° NE
Cosmos 389 Rocket 3.8 21:18:47 10° N 21:21:46 27° ENE 21:24:17 13° SE
Cosmos 1867 3.7 21:18:22 10° NW 21:23:54 76° NE 21:28:54 13° SE
SL-23 DEB 4.5 21:23:30 10° WNW 21:27:21 77° N 21:33:51 10° E
Cosmos 968 Rocket 3.5 21:23:54 10° NNW 21:29:04 79° ENE 21:33:29 14° SSE
Cosmos 1486 Rocket 4.1 21:29:19 10° NNW 21:34:32 68° ENE 21:38:52 15° SE
Cosmos 1544 Rocket 4.5 21:30:16 10° NNW 21:34:33 46° W 21:38:47 10° SSW
Cosmos 1626 2.9 21:31:14 10° SSW 21:34:49 51° WNW 21:38:28 10° N
SJ 16-02 3.9 21:34:13 10° NNE 21:35:33 11° NE 21:36:53 10° ENE
Cosmos 2061 Rocket 4.2 21:29:55 10° NNW 21:36:21 75° W 21:42:43 10° S
FALCON 9 DEB 3.6 21:33:28 10° W 21:36:53 63° NNW 21:40:17 10° ENE
Cosmos 2123 Rocket 4.1 21:31:18 10° S 21:37:36 89° W 21:43:59 10° N
Meteor 2-10 Rocket 3.7 21:33:34 10° N 21:38:36 60° ENE 21:42:36 16° SSE
Cosmos 1606 Rocket 4.2 21:34:58 10° N 21:39:16 43° ENE 21:42:32 16° SE
Cosmos 2233 Rocket 4.0 21:34:00 10° N 21:40:11 76° E 21:45:35 14° SSE
Cosmos 1943 Rocket 4.2 21:36:36 10° N 21:40:35 20° NE 21:44:33 10° E
Uosat 12 SS-18 rocket 4.4 21:37:00 10° SSW 21:41:16 52° ESE 21:46:12 10° NE
ARIANE 5 R/B 3.6 21:38:53 10° S 21:43:07 43° W 21:47:27 10° NNW
Cosmos 1346 Rocket 3.2 21:47:04 17° SSE 21:49:52 46° E 21:53:45 10° NNE
Cosmos 405 4.1 21:47:23 10° NNW 21:50:37 37° W 21:53:33 12° SSW
ATLAS CENTAUR R/B 2.9 21:47:21 10° WNW 21:51:09 29° WSW 21:54:30 13° S
Cosmos 1980 4.4 21:51:14 15° SSE 21:55:14 36° ESE 22:00:23 10° NE
BREEZE-M DEB (TANK) 4.2 21:44:43 10° SW 21:55:22 34° SSE 21:59:02 10° E
ATLAS 3B R/B 2.7 21:50:33 10° SW 21:57:08 86° NW 22:03:59 10° NE
SL-4 R/B 2.6 21:55:34 10° SSW 21:59:14 31° SE 22:02:40 10° E
FALCON 9 DEB 2.7 21:57:59 10° WSW 22:01:07 81° SSE 22:04:16 10° ENE
ALOS 2 4.4 21:57:54 10° ESE 22:01:13 22° ENE 22:04:35 10° NNE
Cosmos 2219 Rocket 2.5 22:01:13 10° SW 22:06:54 73° WNW 22:12:36 10° NNE
Meteor 2-5 Rocket 4.0 22:01:53 10° SSW 22:07:25 71° WNW 22:13:04 10° N
Cosmos 1607 4.0 22:01:22 10° NW 22:07:51 86° NE 22:12:53 17° SE
Lacrosse 5 rocket 2.2 22:05:02 10° W 22:08:33 46° NNW 22:12:01 10° NE
Cosmos 2333 Rocket 2.7 22:02:52 10° SW 22:08:35 63° WNW 22:14:17 10° NNE
ERS-1 Rocket 4.1 22:04:07 10° SSW 22:08:47 37° W 22:13:29 10° NNW
Cosmos 1536 Rocket 4.5 22:06:11 10° SSW 22:10:29 47° WNW 22:14:48 10° N
Cosmos 2228 3.1 22:06:39 10° NNW 22:11:04 79° W 22:14:06 20° S
Iridium 2 4.0 22:12:19 24° SSE 22:14:20 50° E 22:17:59 10° NNE
FALCON 9 DEB 3.1 22:13:36 10° WSW 22:16:41 70° NNW 22:19:47 10° ENE
USA 215 3.8 22:13:54 10° ENE 22:19:53 36° SE 22:25:28 11° SSW
Terra 3.0 22:20:12 13° SSW 22:24:03 36° W 22:28:27 10° NNW
FALCON 9 DEB 3.0 22:21:36 10° WSW 22:24:44 74° NNW 22:27:51 10° ENE
SL-16 R/B 3.6 22:23:55 17° SE 22:26:15 22° ESE 22:30:31 10° NE
FALCON 9 DEB 3.3 22:24:11 10° W 22:27:17 65° NNW 22:30:23 10° ENE
Cosmos 2237 Rocket 2.3 22:23:45 17° S 22:28:00 58° ESE 22:33:31 10° NE
Cosmos 1455 2.1 22:24:10 10° N 22:28:01 82° E 22:29:59 27° SSE
Cosmos 1464 Rocket 4.2 22:23:36 10° N 22:29:58 69° ENE 22:34:26 21° SSE
Cosmos 1184 Rocket 3.1 22:29:49 31° SSE 22:30:57 47° E 22:34:06 10° NNE
Cosmos 2360 Rocket 4.4 22:27:16 10° W 22:31:58 26° NW 22:36:42 10° NNE
H-2A R/B 4.2 22:28:33 10° N 22:32:31 49° WNW 22:36:19 11° SW
Cosmos 1503 Rocket 4.2 22:29:12 10° NNW 22:34:34 69° WSW 22:37:58 23° S
Cosmos 2369 Rocket 4.1 22:30:10 10° NNW 22:34:54 25° NE 22:39:35 10° E
Meteor 1-24 Rocket 4.5 22:34:06 10° SSW 22:39:16 48° WNW 22:44:41 10° N
GEOS 3 Rocket 3.7 22:38:08 19° SE 22:42:07 89° NE 22:47:30 10° NW
ATLAS CENTAUR R/B 3.7 22:40:45 21° S 22:44:07 45° ESE 22:55:30 10° NE
USA 267 3.4 22:48:39 10° ESE 22:55:11 79° NNE 23:01:45 10° WNW
Cosmos 389 Rocket 4.4 22:53:36 10° NW 22:56:18 21° W 22:58:04 15° SW
Okean 1-7 Rocket 3.6 22:54:15 27° S 22:56:35 71° E 23:01:01 10° NNE
Cosmos 1812 Rocket 4.5 22:52:53 10° N 22:56:59 38° ENE 22:59:21 21° SE
BREEZE-M DEB (TANK) 2.7 22:55:57 10° W 22:59:10 85° S 23:08:13 10° E
Cosmos 2278 Rocket 3.0 22:54:16 10° NW 22:59:30 39° WSW 23:02:45 21° SSW
COSMOS 2428 4.0 22:55:49 10° WSW 23:01:12 40° NW 23:06:38 10° NNE
Cosmos 2058 Rocket 3.3 22:57:42 10° NNW 23:02:06 60° W 23:04:24 26° SSW
Cosmos 2297 3.9 22:56:34 10° NNW 23:02:13 67° ENE 23:06:11 20° SE
Cosmos 2034 Rocket 3.9 22:59:55 10° N 23:06:09 88° E 23:10:01 24° S
NOSS 0 Rocket 4.3 23:02:54 10° SW 23:09:04 65° NW 23:15:19 10° NNE
FALCON 9 DEB 4.0 23:10:42 10° WNW 23:14:03 50° N 23:17:23 10° E
SJ 16-02 1.6 23:10:43 10° NNW 23:15:05 63° ENE 23:17:27 26° SE
Meteor 1-21 Rocket 4.3 23:14:30 21° SSW 23:18:19 77° WNW 23:24:07 10° N
Cosmos 1777 Rocket 4.1 23:14:51 10° NNW 23:20:07 66° WSW 23:22:56 27° S
GP-B 3.6 23:19:36 10° N 23:23:56 49° E 23:26:01 27° SSE
Cosmos 1943 Rocket 2.2 23:19:43 10° NNW 23:25:16 78° ENE 23:28:53 22° SE
Meteor 1-4 Rocket 2.5 23:22:04 10° NNW 23:25:32 68° W 23:26:36 40° SSW
Cosmos 1892 4.2 23:30:16 20° ESE 23:31:40 25° E 23:34:54 10° NNE
Cosmos 1441 Rocket 3.9 23:29:44 24° SW 23:31:44 48° WNW 23:35:27 10° N
MTI 3.7 23:28:50 10° NNE 23:31:52 63° ESE 23:32:27 49° SSE
Cosmos 1869 4.4 23:32:08 10° N 23:35:59 37° ENE 23:38:08 21° SE
FALCON 9 DEB 4.0 23:33:57 10° W 23:37:00 46° N 23:40:02 10° ENE
ALOS 2 3.0 23:35:17 29° SSW 23:37:14 51° W 23:41:33 10° NNW
Tsikada Rocket 3.9 23:34:13 25° S 23:38:02 86° E 23:44:14 10° N
SL-4 R/B 1.7 23:34:35 10° WSW 23:38:36 88° NNW 23:42:17 10° ENE
Lacrosse 4 Rocket 4.1 23:36:26 10° N 23:39:10 17° NE 23:41:53 10° ENE
USA 229 DEB 4.1 23:38:46 25° S 23:41:56 41° ESE 23:48:15 10° NE
USA 229 4.1 23:38:53 25° S 23:42:03 41° ESE 23:48:20 10° NE
Lacrosse 5 rocket 3.4 23:45:11 10° WNW 23:48:15 26° N 23:51:20 10° ENE
ATLAS 3B R/B 4.4 23:42:44 10° W 23:48:42 34° NNW 23:54:56 10° NE
NOSS 3-1 (C) 3.3 23:46:44 25° SSW 23:49:55 64° SE 23:56:11 10° NE
Cosmos 1626 Rocket 4.1 23:49:24 25° SW 23:51:47 54° WNW 23:56:10 10° N
FALCON 9 DEB 4.0 23:49:33 10° WNW 23:52:33 44° N 23:55:32 10° ENE
Elektron 1 4.3 23:50:53 10° WNW 23:53:42 37° SW 23:53:44 37° SW
SL-16 R/B 4.4 23:49:17 10° ESE 23:54:07 25° NE 23:58:56 10° N
Cosmos 1408 3.6 23:53:09 27° SE 23:54:24 35° E 23:57:48 10° NNE
Cosmos 1825 3.9 23:54:28 18° ESE 23:55:59 22° E 23:58:57 10° NE
